This is the latest recevied weather packets stored in our database for station/object W0WC. If no packets are shown the sender has not sent any weather packets the latest 10 day(s).
| Time | Temp. | Humidity | Pressure | Rain* | Wind** | Luminosity | Snow |
|---|---|---|---|---|---|---|---|
| 1788530751 | 28.89° C | 64% | 1016.9 hPa | 0 mm | - | 79 W/m² | - |
| 1788530445 | 28.89° C | 65% | 1017 hPa | 0 mm | - | 105 W/m² | - |
| 1788530145 | 28.89° C | 64% | 1016.8 hPa | 0 mm | - | 203 W/m² | - |
| 1788529841 | 28.89° C | 64% | 1016.8 hPa | 0 mm | - | 60 W/m² | - |
| 1788529537 | 28.89° C | 63% | 1016.8 hPa | 0 mm | - | 72 W/m² | - |
| 1788529230 | 28.33° C | 63% | 1016.7 hPa | 0 mm | - | 47 W/m² | - |
| 1788528926 | 27.78° C | 65% | 1016.9 hPa | 0 mm | - | 164 W/m² | - |
| 1788528622 | 27.78° C | 65% | 1016.8 hPa | 0 mm | - | 151 W/m² | - |
| 1788528322 | 27.22° C | 66% | 1016.6 hPa | 0 mm | - | 58 W/m² | - |
| 1788528022 | 27.22° C | 66% | 1016.5 hPa | 0 mm | - | 68 W/m² | - |
| 1788527752 | 27.22° C | 66% | 1016.8 hPa | 0 mm | - | 50 W/m² | - |
| 1788527417 | 26.67° C | 66% | 1016.7 hPa | 0 mm | - | 99 W/m² | - |
| 1788527116 | 26.67° C | 66% | 1016.4 hPa | 0 mm | - | 78 W/m² | - |
| 1788526811 | 26.67° C | 66% | 1016.8 hPa | 0 mm | - | 74 W/m² | - |
| 1788526508 | 26.67° C | 67% | 1016.5 hPa | 0 mm | - | 71 W/m² | - |
| 1788526203 | 26.67° C | 67% | 1016.5 hPa | 0 mm | - | 62 W/m² | - |
| 1788525898 | 26.67° C | 67% | 1016.5 hPa | 0 mm | - | 54 W/m² | - |
| 1788525594 | 26.11° C | 68% | 1016.5 hPa | 0 mm | - | 46 W/m² | - |
| 1788525288 | 26.11° C | 68% | 1016.3 hPa | 0 mm | - | 39 W/m² | - |
| 1788524998 | 26.11° C | 69% | 1016.3 hPa | 0 mm | - | 32 W/m² | - |
| 1788524683 | 25.56° C | 69% | 1016.4 hPa | 0 mm | - | 27 W/m² | - |
| 1788524377 | 25.56° C | 70% | 1016.6 hPa | 0 mm | - | 22 W/m² | - |
| 1788524074 | 25.56° C | 70% | 1016.3 hPa | 0 mm | - | 18 W/m² | - |
| 1788523770 | 25.56° C | 70% | 1016.5 hPa | 0 mm | - | 14 W/m² | - |
| 1788523466 | 25.56° C | 70% | 1016.4 hPa | 0 mm | - | 10 W/m² | - |
* Rain latest hour (hover to see other rain measurements)
** Current wind speed in m/s (hover to see current wind gust speed)